Retour au catalogue

COSMOS 2251 DEB

ActifLEO
NORAD 36366·DEBRIS·🇷🇺 Russia

Lancé Jun 16, 1993 depuis Plesetsk Cosmodrome

Loading…

Prochains Passages (prochaines 24 heures)

TLE

PériméSource: Space-Track

Époque: Sep 3, 2026, 10:11 UTC

1 36366U 93036AYT 26246.42433997  .00001699  00000-0  57576-3 0  9994
2 36366  74.0642 149.0450 0086331 113.5141 247.5113 14.35395098900840

Suivez COSMOS 2251 DEB en temps réel avec AllMySat

Download on the App Store